Location: Rock River
(41.7433°N, 105.9768°W)
Time: 07:22:31
(UTC+00:00)

Vanguard 1 - Pass Details

Date: 05 June 2022
Orbit: 649 x 3833 km, 34.2° (Epoch: 04 July)

Event Time Altitude Azimuth Distance (km) Brightness Sun altitude
Rises 05:46:53 0° 233° (SW) 3,938 13.0 -23.4°
Reaches altitude 10° 05:49:12 10° 227° (SW) 3,248 12.5 -23.5°
Maximum altitude 05:57:12 48° 155° (SSE) 2,297 11.4 -24.0°
Drops below altitude 10° 06:11:41 10° 88° (E) 5,725 13.8 -24.6°
Sets 06:17:19 0° 85° (E) 7,194 14.4 -24.9°
